Time,TemperatureF,DewpointF,PressureIn,WindDirection,WindDirectionDegrees,WindSpeedMPH,WindSpeedGustMPH,Humidity,HourlyPrecipIn,Conditions,Clouds,dailyrainin,SoftwareType,DateUTC
2013-03-04 00:00:00,29.6,9.1,29.56,ENE,71,0.0,13.0,42,0.00,,,0.00,Weather View 32 v70,2013-03-04 05:00:00,
2013-03-04 00:05:00,29.6,8.4,29.56,WNW,302,2.0,13.0,40,0.00,,,0.00,Weather View 32 v70,2013-03-04 05:05:00,
2013-03-04 00:10:00,29.6,8.1,29.56,NW,326,2.0,13.0,40,0.00,,,0.00,Weather View 32 v70,2013-03-04 05:10:00,
2013-03-04 00:15:00,29.5,7.8,29.59,NNW,329,2.0,13.0,39,0.00,,,0.00,Weather View 32 v70,2013-03-04 05:15:00,
2013-03-04 00:20:00,29.5,7.3,29.56,North,358,2.0,14.0,39,0.00,,,0.00,Weather View 32 v70,2013-03-04 05:20:00,
2013-03-04 00:25:00,29.6,7.6,29.56,SE,139,1.0,14.0,39,0.00,,,0.00,Weather View 32 v70,2013-03-04 05:25:00,
2013-03-04 00:30:00,29.5,7.0,29.56,SW,219,1.0,14.0,38,0.00,,,0.00,Weather View 32 v70,2013-03-04 05:30:00,
2013-03-04 00:35:00,29.5,7.3,29.59,SSW,204,2.0,14.0,39,0.00,,,0.00,Weather View 32 v70,2013-03-04 05:35:00,
2013-03-04 00:40:00,30.2,7.6,29.59,ESE,118,3.0,14.0,38,0.00,,,0.00,Weather View 32 v70,2013-03-04 05:40:00,
2013-03-04 00:45:00,29.5,6.8,29.59,WNW,302,2.0,14.0,38,0.00,,,0.00,Weather View 32 v70,2013-03-04 05:45:00,
2013-03-04 00:50:00,29.5,6.7,29.59,North,351,3.0,14.0,38,0.00,,,0.00,Weather View 32 v70,2013-03-04 05:50:00,
2013-03-04 00:55:00,29.5,7.0,29.59,WNW,297,3.0,14.0,38,0.00,,,0.00,Weather View 32 v70,2013-03-04 05:55:00,
2013-03-04 01:00:00,30.0,7.7,29.59,East,79,4.0,14.0,38,0.00,,,0.00,Weather View 32 v70,2013-03-04 06:00:00,
2013-03-04 01:05:00,29.1,6.6,29.62,NW,325,4.0,14.0,38,0.00,,,0.00,Weather View 32 v70,2013-03-04 06:05:00,
2013-03-04 01:10:00,29.8,7.1,29.59,East,82,0.0,14.0,38,0.00,,,0.00,Weather View 32 v70,2013-03-04 06:10:00,
2013-03-04 01:15:00,29.6,6.7,29.59,North,8,5.0,14.0,37,0.00,,,0.00,Weather View 32 v70,2013-03-04 06:15:00,
2013-03-04 01:20:00,29.8,6.8,29.59,North,358,1.0,14.0,37,0.00,,,0.00,Weather View 32 v70,2013-03-04 06:20:00,
2013-03-04 01:25:00,29.6,6.7,29.59,NNE,29,3.0,13.0,37,0.00,,,0.00,Weather View 32 v70,2013-03-04 06:25:00,
2013-03-04 01:30:00,29.3,6.7,29.56,SSW,197,4.0,13.0,38,0.00,,,0.00,Weather View 32 v70,2013-03-04 06:30:00,
2013-03-04 01:35:00,29.3,6.5,29.59,NNW,344,5.0,13.0,37,0.00,,,0.00,Weather View 32 v70,2013-03-04 06:35:00,
2013-03-04 01:40:00,28.9,6.1,29.59,NNW,341,1.0,13.0,37,0.00,,,0.00,Weather View 32 v70,2013-03-04 06:40:00,
2013-03-04 01:45:00,29.3,7.0,29.59,SSW,211,1.0,13.0,38,0.00,,,0.00,Weather View 32 v70,2013-03-04 06:45:00,
2013-03-04 01:50:00,29.3,6.7,29.59,NE,42,2.0,13.0,38,0.00,,,0.00,Weather View 32 v70,2013-03-04 06:50:00,
2013-03-04 01:55:00,29.1,6.9,29.59,SSE,158,2.0,13.0,38,0.00,,,0.00,Weather View 32 v70,2013-03-04 06:55:00,
2013-03-04 02:00:00,29.1,7.2,29.62,ENE,77,3.0,13.0,39,0.00,,,0.00,Weather View 32 v70,2013-03-04 07:00:00,
2013-03-04 02:05:00,28.6,6.7,29.59,NNW,328,2.0,13.0,39,0.00,,,0.00,Weather View 32 v70,2013-03-04 07:05:00,
2013-03-04 02:10:00,28.4,6.7,29.59,NNW,327,4.0,15.0,39,0.00,,,0.00,Weather View 32 v70,2013-03-04 07:10:00,
2013-03-04 02:15:00,28.4,6.6,29.59,South,171,1.0,15.0,39,0.00,,,0.00,Weather View 32 v70,2013-03-04 07:15:00,
2013-03-04 02:20:00,28.6,6.7,29.59,ESE,107,1.0,15.0,39,0.00,,,0.00,Weather View 32 v70,2013-03-04 07:20:00,
2013-03-04 02:25:00,28.0,6.1,29.59,NNW,332,2.0,15.0,39,0.00,,,0.00,Weather View 32 v70,2013-03-04 07:25:00,
2013-03-04 02:30:00,28.2,6.2,29.59,South,186,1.0,15.0,39,0.00,,,0.00,Weather View 32 v70,2013-03-04 07:30:00,
2013-03-04 02:35:00,28.0,6.0,29.59,NNW,336,6.0,15.0,39,0.00,,,0.00,Weather View 32 v70,2013-03-04 07:35:00,
2013-03-04 02:40:00,28.0,6.2,29.59,WNW,284,6.0,15.0,39,0.00,,,0.00,Weather View 32 v70,2013-03-04 07:40:00,
2013-03-04 02:45:00,27.7,5.9,29.56,NW,313,7.0,15.0,39,0.00,,,0.00,Weather View 32 v70,2013-03-04 07:45:00,
2013-03-04 02:50:00,28.2,6.3,29.59,West,259,3.0,15.0,39,0.00,,,0.00,Weather View 32 v70,2013-03-04 07:50:00,
2013-03-04 02:55:00,28.4,6.6,29.59,ESE,113,1.0,15.0,39,0.00,,,0.00,Weather View 32 v70,2013-03-04 07:55:00,
2013-03-04 03:00:00,28.2,6.1,29.59,West,279,2.0,16.0,38,0.00,,,0.00,Weather View 32 v70,2013-03-04 08:00:00,
2013-03-04 03:06:00,28.2,5.9,29.59,NNE,17,2.0,16.0,38,0.00,,,0.00,Weather View 32 v70,2013-03-04 08:06:00,
2013-03-04 03:11:00,27.3,5.4,29.59,West,268,9.0,16.0,39,0.00,,,0.00,Weather View 32 v70,2013-03-04 08:11:00,
2013-03-04 03:16:00,28.0,5.7,29.59,North,2,2.0,16.0,38,0.00,,,0.00,Weather View 32 v70,2013-03-04 08:16:00,
2013-03-04 03:21:00,28.0,5.7,29.59,ENE,61,2.0,16.0,38,0.00,,,0.00,Weather View 32 v70,2013-03-04 08:21:00,
2013-03-04 03:26:00,28.0,5.5,29.59,SE,142,1.0,16.0,38,0.00,,,0.00,Weather View 32 v70,2013-03-04 08:26:00,
2013-03-04 03:31:00,28.0,5.6,29.59,WNW,292,5.0,16.0,38,0.00,,,0.00,Weather View 32 v70,2013-03-04 08:31:00,
2013-03-04 03:36:00,28.0,5.4,29.59,West,259,2.0,16.0,38,0.00,,,0.00,Weather View 32 v70,2013-03-04 08:36:00,
2013-03-04 03:41:00,27.7,5.2,29.59,North,359,5.0,16.0,38,0.00,,,0.00,Weather View 32 v70,2013-03-04 08:41:00,
2013-03-04 03:46:00,27.7,5.4,29.59,North,349,3.0,16.0,38,0.00,,,0.00,Weather View 32 v70,2013-03-04 08:46:00,
2013-03-04 03:51:00,27.7,5.3,29.59,NNW,336,5.0,16.0,38,0.00,,,0.00,Weather View 32 v70,2013-03-04 08:51:00,
2013-03-04 03:56:00,28.0,6.1,29.59,NNW,342,1.0,16.0,39,0.00,,,0.00,Weather View 32 v70,2013-03-04 08:56:00,
2013-03-04 04:01:00,27.3,5.5,29.59,NW,316,6.0,16.0,39,0.00,,,0.00,Weather View 32 v70,2013-03-04 09:01:00,
2013-03-04 04:06:00,27.7,5.9,29.59,NW,326,4.0,16.0,39,0.00,,,0.00,Weather View 32 v70,2013-03-04 09:06:00,
2013-03-04 04:11:00,28.0,6.1,29.59,South,175,1.0,16.0,39,0.00,,,0.00,Weather View 32 v70,2013-03-04 09:11:00,
2013-03-04 04:16:00,27.7,5.8,29.59,WSW,241,3.0,16.0,39,0.00,,,0.00,Weather View 32 v70,2013-03-04 09:16:00,
2013-03-04 04:21:00,27.7,6.0,29.62,NW,324,4.0,16.0,39,0.00,,,0.00,Weather View 32 v70,2013-03-04 09:21:00,
2013-03-04 04:26:00,27.3,5.8,29.59,North,7,9.0,16.0,39,0.00,,,0.00,Weather View 32 v70,2013-03-04 09:26:00,
2013-03-04 04:31:00,27.3,6.1,29.62,WNW,300,5.0,16.0,40,0.00,,,0.00,Weather View 32 v70,2013-03-04 09:31:00,
2013-03-04 04:36:00,27.3,6.0,29.56,NNW,348,3.0,16.0,40,0.00,,,0.00,Weather View 32 v70,2013-03-04 09:36:00,
2013-03-04 04:41:00,27.3,5.8,29.59,NNW,335,2.0,16.0,39,0.00,,,0.00,Weather View 32 v70,2013-03-04 09:41:00,
2013-03-04 04:46:00,27.5,6.3,29.62,South,184,1.0,16.0,40,0.00,,,0.00,Weather View 32 v70,2013-03-04 09:46:00,
2013-03-04 04:51:00,27.3,5.8,29.62,WNW,299,6.0,16.0,39,0.00,,,0.00,Weather View 32 v70,2013-03-04 09:51:00,
2013-03-04 04:56:00,27.3,6.0,29.62,WNW,300,2.0,15.0,40,0.00,,,0.00,Weather View 32 v70,2013-03-04 09:56:00,
2013-03-04 05:01:00,27.3,6.1,29.59,NW,307,1.0,15.0,40,0.00,,,0.00,Weather View 32 v70,2013-03-04 10:01:00,
2013-03-04 05:06:00,27.5,5.9,29.62,NNE,28,3.0,15.0,39,0.00,,,0.00,Weather View 32 v70,2013-03-04 10:06:00,
2013-03-04 05:11:00,27.3,6.2,29.62,ESE,116,1.0,15.0,40,0.00,,,0.00,Weather View 32 v70,2013-03-04 10:11:00,
2013-03-04 05:16:00,27.3,6.0,29.62,North,4,4.0,15.0,40,0.00,,,0.00,Weather View 32 v70,2013-03-04 10:16:00,
2013-03-04 05:21:00,27.3,6.0,29.62,WNW,302,5.0,15.0,40,0.00,,,0.00,Weather View 32 v70,2013-03-04 10:21:00,
2013-03-04 05:26:00,27.3,5.9,29.62,West,264,4.0,15.0,40,0.00,,,0.00,Weather View 32 v70,2013-03-04 10:26:00,
2013-03-04 05:31:00,27.3,6.0,29.62,NW,317,1.0,15.0,40,0.00,,,0.00,Weather View 32 v70,2013-03-04 10:31:00,
2013-03-04 05:36:00,27.3,6.3,29.62,SW,234,3.0,17.0,40,0.00,,,0.00,Weather View 32 v70,2013-03-04 10:36:00,
2013-03-04 05:41:00,27.1,6.1,29.62,NW,311,3.0,17.0,40,0.00,,,0.00,Weather View 32 v70,2013-03-04 10:41:00,
2013-03-04 05:46:00,27.1,6.4,29.62,SE,143,2.0,17.0,41,0.00,,,0.00,Weather View 32 v70,2013-03-04 10:46:00,
2013-03-04 05:51:00,27.1,5.9,29.62,SW,220,1.0,17.0,40,0.00,,,0.00,Weather View 32 v70,2013-03-04 10:51:00,
2013-03-04 05:56:00,27.1,5.9,29.62,East,98,6.0,17.0,40,0.00,,,0.00,Weather View 32 v70,2013-03-04 10:56:00,
2013-03-04 06:01:00,26.8,5.7,29.62,NW,315,3.0,17.0,40,0.00,,,0.00,Weather View 32 v70,2013-03-04 11:01:00,
2013-03-04 06:06:00,26.9,6.1,29.65,East,87,3.0,17.0,41,0.00,,,0.00,Weather View 32 v70,2013-03-04 11:06:00,
2013-03-04 06:11:00,26.8,6.0,29.62,NE,46,1.0,17.0,41,0.00,,,0.00,Weather View 32 v70,2013-03-04 11:11:00,
2013-03-04 06:16:00,26.8,6.0,29.62,NW,307,6.0,17.0,41,0.00,,,0.00,Weather View 32 v70,2013-03-04 11:16:00,
2013-03-04 06:21:00,26.8,5.9,29.62,North,6,2.0,17.0,40,0.00,,,0.00,Weather View 32 v70,2013-03-04 11:21:00,
2013-03-04 06:26:00,27.1,6.3,29.62,SE,124,6.0,17.0,41,0.00,,,0.00,Weather View 32 v70,2013-03-04 11:26:00,
2013-03-04 06:31:00,26.9,5.9,29.62,ESE,104,3.0,17.0,40,0.00,,,0.00,Weather View 32 v70,2013-03-04 11:31:00,
2013-03-04 06:36:00,26.6,6.0,29.62,WNW,296,8.0,16.0,41,0.00,,,0.00,Weather View 32 v70,2013-03-04 11:36:00,
2013-03-04 06:41:00,26.6,5.9,29.62,NNW,332,2.0,16.0,41,0.00,,,0.00,Weather View 32 v70,2013-03-04 11:41:00,
2013-03-04 06:46:00,26.9,5.9,29.62,NNE,14,7.0,15.0,40,0.00,,,0.00,Weather View 32 v70,2013-03-04 11:46:00,
2013-03-04 06:51:00,26.6,6.2,29.62,NNW,333,7.0,15.0,41,0.00,,,0.00,Weather View 32 v70,2013-03-04 11:51:00,
2013-03-04 06:56:00,26.9,6.4,29.62,NW,318,11.0,15.0,41,0.00,,,0.00,Weather View 32 v70,2013-03-04 11:56:00,
2013-03-04 07:01:00,27.3,6.3,29.62,NW,308,2.0,15.0,40,0.00,,,0.00,Weather View 32 v70,2013-03-04 12:01:00,
2013-03-04 07:06:00,27.3,5.7,29.62,West,277,3.0,15.0,39,0.00,,,0.00,Weather View 32 v70,2013-03-04 12:06:00,
2013-03-04 07:11:00,27.1,5.7,29.62,SW,220,6.0,15.0,40,0.00,,,0.00,Weather View 32 v70,2013-03-04 12:11:00,
2013-03-04 07:16:00,27.5,5.9,29.59,NW,304,6.0,16.0,39,0.00,,,0.00,Weather View 32 v70,2013-03-04 12:16:00,
2013-03-04 07:21:00,28.0,6.0,29.62,NNE,12,3.0,16.0,39,0.00,,,0.00,Weather View 32 v70,2013-03-04 12:21:00,
2013-03-04 07:26:00,28.6,6.2,29.62,ENE,65,2.0,17.0,38,0.00,,,0.00,Weather View 32 v70,2013-03-04 12:26:00,
2013-03-04 07:31:00,28.6,5.8,29.62,WSW,242,2.0,17.0,37,0.00,,,0.00,Weather View 32 v70,2013-03-04 12:31:00,
2013-03-04 07:36:00,28.7,5.3,29.59,WNW,287,16.0,17.0,36,0.00,,,0.00,Weather View 32 v70,2013-03-04 12:36:00,
2013-03-04 07:41:00,29.5,5.9,29.62,NW,313,6.0,17.0,36,0.00,,,0.00,Weather View 32 v70,2013-03-04 12:41:00,
2013-03-04 07:46:00,30.5,5.3,29.59,WNW,302,5.0,17.0,34,0.00,,,0.00,Weather View 32 v70,2013-03-04 12:46:00,
2013-03-04 07:51:00,30.9,5.5,29.62,North,2,2.0,17.0,34,0.00,,,0.00,Weather View 32 v70,2013-03-04 12:51:00,
2013-03-04 07:56:00,32.0,6.1,29.62,NE,50,4.0,17.0,33,0.00,,,0.00,Weather View 32 v70,2013-03-04 12:56:00,
2013-03-04 08:01:00,31.1,5.9,29.62,North,9,2.0,17.0,34,0.00,,,0.00,Weather View 32 v70,2013-03-04 13:01:00,
2013-03-04 08:06:00,30.7,5.0,29.62,NW,311,15.0,17.0,33,0.00,,,0.00,Weather View 32 v70,2013-03-04 13:06:00,
2013-03-04 08:11:00,32.3,6.1,29.59,NNW,332,4.0,19.0,33,0.00,,,0.00,Weather View 32 v70,2013-03-04 13:11:00,
2013-03-04 08:16:00,31.6,6.3,29.62,WNW,303,7.0,21.0,34,0.00,,,0.00,Weather View 32 v70,2013-03-04 13:16:00,
2013-03-04 08:21:00,32.0,7.0,29.62,NNW,338,9.0,23.0,34,0.00,,,0.00,Weather View 32 v70,2013-03-04 13:21:00,
2013-03-04 08:26:00,32.3,6.6,29.62,NNE,19,13.0,23.0,33,0.00,,,0.00,Weather View 32 v70,2013-03-04 13:26:00,
2013-03-04 08:31:00,32.3,6.3,29.62,NW,322,5.0,23.0,33,0.00,,,0.00,Weather View 32 v70,2013-03-04 13:31:00,
2013-03-04 08:36:00,32.3,7.3,29.62,North,349,3.0,23.0,34,0.00,,,0.00,Weather View 32 v70,2013-03-04 13:36:00,
2013-03-04 08:41:00,32.3,7.0,29.62,NW,326,6.0,23.0,34,0.00,,,0.00,Weather View 32 v70,2013-03-04 13:41:00,
2013-03-04 08:46:00,33.4,7.4,29.65,WNW,285,5.0,23.0,33,0.00,,,0.00,Weather View 32 v70,2013-03-04 13:46:00,
2013-03-04 08:51:00,32.5,5.8,29.59,NW,326,10.0,23.0,32,0.00,,,0.00,Weather View 32 v70,2013-03-04 13:51:00,
2013-03-04 08:56:00,32.5,6.4,29.59,NNW,346,9.0,23.0,33,0.00,,,0.00,Weather View 32 v70,2013-03-04 13:56:00,
2013-03-04 09:01:00,32.3,6.8,29.62,NNW,348,7.0,23.0,34,0.00,,,0.00,Weather View 32 v70,2013-03-04 14:01:00,
2013-03-04 09:06:00,32.3,7.1,29.62,NNW,338,9.0,23.0,34,0.00,,,0.00,Weather View 32 v70,2013-03-04 14:06:00,
2013-03-04 09:11:00,31.1,6.3,29.65,NNW,333,15.0,23.0,35,0.00,,,0.00,Weather View 32 v70,2013-03-04 14:11:00,
2013-03-04 09:16:00,31.3,6.8,29.62,NW,308,17.0,23.0,35,0.00,,,0.00,Weather View 32 v70,2013-03-04 14:16:00,
2013-03-04 09:21:00,32.3,7.0,29.59,NNW,338,7.0,29.0,34,0.00,,,0.00,Weather View 32 v70,2013-03-04 14:21:00,
2013-03-04 09:26:00,33.1,8.0,29.62,North,358,7.0,29.0,35,0.00,,,0.00,Weather View 32 v70,2013-03-04 14:26:00,
2013-03-04 09:31:00,34.5,7.5,29.62,NW,316,3.0,29.0,32,0.00,,,0.00,Weather View 32 v70,2013-03-04 14:31:00,
2013-03-04 09:36:00,32.3,6.2,29.62,North,8,12.0,29.0,33,0.00,,,0.00,Weather View 32 v70,2013-03-04 14:36:00,
2013-03-04 09:41:00,32.7,7.1,29.62,North,351,4.0,29.0,34,0.00,,,0.00,Weather View 32 v70,2013-03-04 14:41:00,
2013-03-04 09:46:00,34.1,8.3,29.62,NW,318,10.0,29.0,34,0.00,,,0.00,Weather View 32 v70,2013-03-04 14:46:00,
2013-03-04 09:51:00,34.3,6.2,29.59,NW,309,10.0,29.0,30,0.00,,,0.00,Weather View 32 v70,2013-03-04 14:51:00,
2013-03-04 09:56:00,35.2,6.7,29.59,West,280,5.0,29.0,30,0.00,,,0.00,Weather View 32 v70,2013-03-04 14:56:00,
2013-03-04 10:01:00,36.3,8.1,29.59,North,5,1.0,29.0,30,0.00,,,0.00,Weather View 32 v70,2013-03-04 15:01:00,
2013-03-04 10:06:00,35.0,4.9,29.59,WNW,302,11.0,29.0,28,0.00,,,0.00,Weather View 32 v70,2013-03-04 15:06:00,
2013-03-04 10:11:00,34.7,6.0,29.59,NNW,334,5.0,29.0,30,0.00,,,0.00,Weather View 32 v70,2013-03-04 15:11:00,
2013-03-04 10:16:00,34.5,6.4,29.59,NW,319,5.0,29.0,30,0.00,,,0.00,Weather View 32 v70,2013-03-04 15:16:00,
2013-03-04 10:21:00,34.1,6.6,29.59,North,351,7.0,25.0,31,0.00,,,0.00,Weather View 32 v70,2013-03-04 15:21:00,
2013-03-04 10:26:00,36.7,8.3,29.59,North,351,4.0,25.0,30,0.00,,,0.00,Weather View 32 v70,2013-03-04 15:26:00,
2013-03-04 10:31:00,35.9,7.0,29.59,NNW,333,11.0,25.0,29,0.00,,,0.00,Weather View 32 v70,2013-03-04 15:31:00,
2013-03-04 10:36:00,35.0,6.9,29.59,NNW,330,6.0,22.0,30,0.00,,,0.00,Weather View 32 v70,2013-03-04 15:36:00,
2013-03-04 10:41:00,36.5,7.1,29.59,North,354,5.0,22.0,29,0.00,,,0.00,Weather View 32 v70,2013-03-04 15:41:00,
2013-03-04 10:46:00,35.0,6.3,29.59,NW,309,8.0,22.0,30,0.00,,,0.00,Weather View 32 v70,2013-03-04 15:46:00,
2013-03-04 10:51:00,35.2,7.1,29.62,WNW,291,10.0,23.0,30,0.00,,,0.00,Weather View 32 v70,2013-03-04 15:51:00,
2013-03-04 10:56:00,35.8,7.0,29.59,NNW,333,8.0,23.0,30,0.00,,,0.00,Weather View 32 v70,2013-03-04 15:56:00,
2013-03-04 11:01:00,35.2,6.3,29.59,NNW,346,8.0,23.0,29,0.00,,,0.00,Weather View 32 v70,2013-03-04 16:01:00,
2013-03-04 11:06:00,35.4,6.0,29.59,North,350,12.0,23.0,29,0.00,,,0.00,Weather View 32 v70,2013-03-04 16:06:00,
2013-03-04 11:11:00,35.6,6.9,29.59,NNW,345,2.0,23.0,30,0.00,,,0.00,Weather View 32 v70,2013-03-04 16:11:00,
2013-03-04 11:16:00,34.9,7.1,29.59,NW,308,8.0,23.0,31,0.00,,,0.00,Weather View 32 v70,2013-03-04 16:16:00,
2013-03-04 11:21:00,36.1,7.7,29.59,NW,317,7.0,23.0,30,0.00,,,0.00,Weather View 32 v70,2013-03-04 16:21:00,
2013-03-04 11:26:00,35.6,8.0,29.59,WNW,296,3.0,23.0,31,0.00,,,0.00,Weather View 32 v70,2013-03-04 16:26:00,
2013-03-04 11:31:00,37.2,8.7,29.59,North,358,6.0,23.0,30,0.00,,,0.00,Weather View 32 v70,2013-03-04 16:31:00,
2013-03-04 11:36:00,36.1,7.2,29.59,NNW,328,9.0,23.0,29,0.00,,,0.00,Weather View 32 v70,2013-03-04 16:36:00,
2013-03-04 11:41:00,36.5,8.2,29.56,NNW,344,7.0,23.0,30,0.00,,,0.00,Weather View 32 v70,2013-03-04 16:41:00,
2013-03-04 11:46:00,37.6,9.0,29.59,WSW,251,9.0,23.0,30,0.00,,,0.00,Weather View 32 v70,2013-03-04 16:46:00,
2013-03-04 11:51:00,36.5,6.5,29.59,NW,321,11.0,23.0,28,0.00,,,0.00,Weather View 32 v70,2013-03-04 16:51:00,
2013-03-04 11:56:00,36.5,6.5,29.59,NW,318,10.0,23.0,28,0.00,,,0.00,Weather View 32 v70,2013-03-04 16:56:00,
2013-03-04 12:01:00,36.1,6.5,29.59,NW,316,14.0,23.0,29,0.00,,,0.00,Weather View 32 v70,2013-03-04 17:01:00,
2013-03-04 12:06:00,38.1,7.7,29.59,North,349,5.0,23.0,28,0.00,,,0.00,Weather View 32 v70,2013-03-04 17:06:00,
2013-03-04 12:11:00,38.3,7.8,29.56,NW,314,9.0,23.0,28,0.00,,,0.00,Weather View 32 v70,2013-03-04 17:11:00,
2013-03-04 12:16:00,37.2,5.5,29.59,NNW,348,11.0,23.0,26,0.00,,,0.00,Weather View 32 v70,2013-03-04 17:16:00,
2013-03-04 12:21:00,37.4,6.1,29.56,NNW,338,7.0,23.0,27,0.00,,,0.00,Weather View 32 v70,2013-03-04 17:21:00,
2013-03-04 12:26:00,39.9,6.9,29.56,NNW,332,7.0,23.0,25,0.00,,,0.00,Weather View 32 v70,2013-03-04 17:26:00,
2013-03-04 12:31:00,39.7,6.1,29.56,West,270,5.0,23.0,24,0.00,,,0.00,Weather View 32 v70,2013-03-04 17:31:00,
2013-03-04 12:36:00,38.1,5.6,29.56,NNW,331,13.0,23.0,25,0.00,,,0.00,Weather View 32 v70,2013-03-04 17:36:00,
2013-03-04 12:41:00,38.3,6.5,29.56,NW,322,6.0,22.0,26,0.00,,,0.00,Weather View 32 v70,2013-03-04 17:41:00,
2013-03-04 12:47:00,38.8,6.1,29.56,WSW,256,9.0,22.0,25,0.00,,,0.00,Weather View 32 v70,2013-03-04 17:47:00,
2013-03-04 12:52:00,41.0,7.6,29.56,NNW,347,7.0,22.0,25,0.00,,,0.00,Weather View 32 v70,2013-03-04 17:52:00,
2013-03-04 12:57:00,40.3,6.7,29.56,WNW,287,1.0,22.0,24,0.00,,,0.00,Weather View 32 v70,2013-03-04 17:57:00,
2013-03-04 13:02:00,40.3,6.7,29.56,NW,326,5.0,22.0,25,0.00,,,0.00,Weather View 32 v70,2013-03-04 18:02:00,
2013-03-04 13:07:00,40.4,4.5,29.56,North,355,14.0,22.0,22,0.00,,,0.00,Weather View 32 v70,2013-03-04 18:07:00,
2013-03-04 13:12:00,39.5,4.4,29.56,NW,313,13.0,22.0,23,0.00,,,0.00,Weather View 32 v70,2013-03-04 18:12:00,
2013-03-04 13:17:00,40.6,6.0,29.56,NNE,21,8.0,22.0,23,0.00,,,0.00,Weather View 32 v70,2013-03-04 18:17:00,
2013-03-04 13:22:00,37.4,3.5,29.56,North,352,13.0,22.0,24,0.00,,,0.00,Weather View 32 v70,2013-03-04 18:22:00,
2013-03-04 13:27:00,37.2,5.9,29.56,WNW,294,15.0,27.0,27,0.00,,,0.00,Weather View 32 v70,2013-03-04 18:27:00,
2013-03-04 13:29:00,38.5,6.9,29.56,West,273,5.0,27.0,27,0.00,,,0.00,Weather View 32 v70,2013-03-04 18:29:00,
2013-03-04 13:34:00,37.9,6.0,29.56,WNW,297,18.0,27.0,26,0.00,,,0.00,Weather View 32 v70,2013-03-04 18:34:00,
2013-03-04 13:39:00,40.3,8.7,29.56,NW,314,3.0,27.0,27,0.00,,,0.00,Weather View 32 v70,2013-03-04 18:39:00,
2013-03-04 13:44:00,39.2,6.8,29.56,North,349,7.0,27.0,26,0.00,,,0.00,Weather View 32 v70,2013-03-04 18:44:00,
2013-03-04 13:49:00,37.9,4.2,29.56,NNW,328,17.0,27.0,24,0.00,,,0.00,Weather View 32 v70,2013-03-04 18:49:00,
2013-03-04 13:54:00,40.4,6.9,29.53,NW,312,6.0,27.0,25,0.00,,,0.00,Weather View 32 v70,2013-03-04 18:54:00,
2013-03-04 13:59:00,41.5,7.0,29.56,South,171,1.0,27.0,24,0.00,,,0.00,Weather View 32 v70,2013-03-04 18:59:00,
2013-03-04 14:04:00,38.8,4.0,29.56,NW,313,18.0,27.0,23,0.00,,,0.00,Weather View 32 v70,2013-03-04 19:04:00,
2013-03-04 14:09:00,40.4,6.8,29.56,WNW,291,4.0,27.0,24,0.00,,,0.00,Weather View 32 v70,2013-03-04 19:09:00,
2013-03-04 14:14:00,38.8,5.0,29.56,NW,306,8.0,27.0,24,0.00,,,0.00,Weather View 32 v70,2013-03-04 19:14:00,
2013-03-04 14:19:00,38.5,5.6,29.53,NW,310,11.0,27.0,25,0.00,,,0.00,Weather View 32 v70,2013-03-04 19:19:00,
2013-03-04 14:24:00,38.8,5.3,29.56,NW,314,10.0,27.0,24,0.00,,,0.00,Weather View 32 v70,2013-03-04 19:24:00,
2013-03-04 14:29:00,38.8,5.3,29.56,NW,317,12.0,27.0,24,0.00,,,0.00,Weather View 32 v70,2013-03-04 19:29:00,
2013-03-04 14:34:00,40.4,7.0,29.56,WNW,285,2.0,27.0,25,0.00,,,0.00,Weather View 32 v70,2013-03-04 19:34:00,
2013-03-04 14:39:00,39.5,5.9,29.56,WNW,297,8.0,27.0,24,0.00,,,0.00,Weather View 32 v70,2013-03-04 19:39:00,
2013-03-04 14:44:00,38.1,5.3,29.59,WNW,287,9.0,27.0,25,0.00,,,0.00,Weather View 32 v70,2013-03-04 19:44:00,
2013-03-04 14:49:00,38.3,5.2,29.59,NNW,333,15.0,27.0,25,0.00,,,0.00,Weather View 32 v70,2013-03-04 19:49:00,
2013-03-04 14:54:00,39.7,6.7,29.56,NNW,327,3.0,27.0,25,0.00,,,0.00,Weather View 32 v70,2013-03-04 19:54:00,
2013-03-04 14:59:00,39.9,6.1,29.56,NNW,341,5.0,27.0,24,0.00,,,0.00,Weather View 32 v70,2013-03-04 19:59:00,
2013-03-04 15:04:00,38.3,4.3,29.56,NW,322,10.0,27.0,24,0.00,,,0.00,Weather View 32 v70,2013-03-04 20:04:00,
2013-03-04 15:09:00,39.0,5.8,29.56,North,349,10.0,27.0,25,0.00,,,0.00,Weather View 32 v70,2013-03-04 20:09:00,
2013-03-04 15:14:00,40.6,6.6,29.53,SW,214,2.0,27.0,24,0.00,,,0.00,Weather View 32 v70,2013-03-04 20:14:00,
2013-03-04 15:19:00,38.3,4.4,29.53,NW,325,11.0,24.0,24,0.00,,,0.00,Weather View 32 v70,2013-03-04 20:19:00,
2013-03-04 15:24:00,39.7,6.4,29.53,NW,311,9.0,24.0,25,0.00,,,0.00,Weather View 32 v70,2013-03-04 20:24:00,
2013-03-04 15:29:00,39.2,4.5,29.56,NW,318,9.0,24.0,23,0.00,,,0.00,Weather View 32 v70,2013-03-04 20:29:00,
2013-03-04 15:34:00,40.1,5.4,29.59,WNW,287,3.0,24.0,23,0.00,,,0.00,Weather View 32 v70,2013-03-04 20:34:00,
2013-03-04 15:39:00,39.4,4.5,29.53,NNW,341,10.0,24.0,23,0.00,,,0.00,Weather View 32 v70,2013-03-04 20:39:00,
2013-03-04 15:44:00,39.0,5.2,29.53,NW,304,8.0,24.0,24,0.00,,,0.00,Weather View 32 v70,2013-03-04 20:44:00,
2013-03-04 15:49:00,39.7,5.9,29.56,ENE,59,1.0,24.0,24,0.00,,,0.00,Weather View 32 v70,2013-03-04 20:49:00,
2013-03-04 15:54:00,39.7,4.7,29.56,WNW,300,5.0,24.0,23,0.00,,,0.00,Weather View 32 v70,2013-03-04 20:54:00,
2013-03-04 15:59:00,39.2,5.1,29.53,NW,319,3.0,24.0,24,0.00,,,0.00,Weather View 32 v70,2013-03-04 20:59:00,
2013-03-04 16:04:00,37.7,3.1,29.53,NW,317,19.0,24.0,23,0.00,,,0.00,Weather View 32 v70,2013-03-04 21:04:00,
2013-03-04 16:09:00,39.7,6.2,29.59,NNE,28,6.0,24.0,24,0.00,,,0.00,Weather View 32 v70,2013-03-04 21:09:00,
2013-03-04 16:14:00,37.7,3.8,29.59,North,353,14.0,24.0,24,0.00,,,0.00,Weather View 32 v70,2013-03-04 21:14:00,
2013-03-04 16:19:00,38.8,5.2,29.59,NNW,343,8.0,24.0,24,0.00,,,0.00,Weather View 32 v70,2013-03-04 21:19:00,
2013-03-04 16:24:00,39.4,3.9,29.59,NW,310,7.0,24.0,22,0.00,,,0.00,Weather View 32 v70,2013-03-04 21:24:00,
2013-03-04 16:29:00,37.7,4.2,29.59,West,271,4.0,24.0,24,0.00,,,0.00,Weather View 32 v70,2013-03-04 21:29:00,
2013-03-04 16:34:00,37.7,4.2,29.59,WNW,296,4.0,24.0,24,0.00,,,0.00,Weather View 32 v70,2013-03-04 21:34:00,
2013-03-04 16:39:00,37.0,4.4,29.59,WNW,287,9.0,24.0,25,0.00,,,0.00,Weather View 32 v70,2013-03-04 21:39:00,
2013-03-04 16:44:00,36.3,4.0,29.62,NNW,347,7.0,24.0,25,0.00,,,0.00,Weather View 32 v70,2013-03-04 21:44:00,
2013-03-04 16:49:00,36.1,4.2,29.59,NNW,329,5.0,24.0,26,0.00,,,0.00,Weather View 32 v70,2013-03-04 21:49:00,
2013-03-04 16:54:00,35.9,4.4,29.59,NNW,341,5.0,24.0,26,0.00,,,0.00,Weather View 32 v70,2013-03-04 21:54:00,
2013-03-04 16:59:00,35.2,4.1,29.59,WNW,295,13.0,24.0,27,0.00,,,0.00,Weather View 32 v70,2013-03-04 21:59:00,
2013-03-04 17:04:00,35.0,4.6,29.59,NNW,341,5.0,24.0,27,0.00,,,0.00,Weather View 32 v70,2013-03-04 22:04:00,
2013-03-04 17:09:00,35.0,4.2,29.62,North,356,5.0,24.0,27,0.00,,,0.00,Weather View 32 v70,2013-03-04 22:09:00,
2013-03-04 17:14:00,34.5,4.6,29.56,NW,321,10.0,24.0,28,0.00,,,0.00,Weather View 32 v70,2013-03-04 22:14:00,
2013-03-04 17:19:00,34.1,4.5,29.59,WNW,298,6.0,23.0,28,0.00,,,0.00,Weather View 32 v70,2013-03-04 22:19:00,
2013-03-04 17:24:00,33.8,4.6,29.59,WNW,292,15.0,23.0,29,0.00,,,0.00,Weather View 32 v70,2013-03-04 22:24:00,
2013-03-04 17:29:00,33.6,5.0,29.62,West,271,2.0,23.0,29,0.00,,,0.00,Weather View 32 v70,2013-03-04 22:29:00,
2013-03-04 17:34:00,33.4,4.8,29.59,NW,310,10.0,23.0,29,0.00,,,0.00,Weather View 32 v70,2013-03-04 22:34:00,
2013-03-04 17:39:00,33.2,4.7,29.62,NNW,328,6.0,22.0,29,0.00,,,0.00,Weather View 32 v70,2013-03-04 22:39:00,
2013-03-04 17:44:00,33.1,4.8,29.62,NNW,336,8.0,22.0,30,0.00,,,0.00,Weather View 32 v70,2013-03-04 22:44:00,
2013-03-04 17:49:00,32.9,4.6,29.62,NNW,337,5.0,22.0,30,0.00,,,0.00,Weather View 32 v70,2013-03-04 22:49:00,
2013-03-04 17:54:00,33.1,5.0,29.62,NE,35,6.0,22.0,30,0.00,,,0.00,Weather View 32 v70,2013-03-04 22:54:00,
2013-03-04 17:59:00,32.5,4.7,29.62,NNW,331,4.0,22.0,30,0.00,,,0.00,Weather View 32 v70,2013-03-04 22:59:00,
2013-03-04 18:04:00,32.3,5.3,29.62,NW,316,11.0,22.0,31,0.00,,,0.00,Weather View 32 v70,2013-03-04 23:04:00,
2013-03-04 18:09:00,32.0,5.3,29.62,West,264,7.0,22.0,32,0.00,,,0.00,Weather View 32 v70,2013-03-04 23:09:00,
2013-03-04 18:14:00,32.0,5.2,29.62,NNW,330,1.0,22.0,32,0.00,,,0.00,Weather View 32 v70,2013-03-04 23:14:00,
2013-03-04 18:19:00,31.8,5.2,29.62,North,349,6.0,21.0,32,0.00,,,0.00,Weather View 32 v70,2013-03-04 23:19:00,
2013-03-04 18:24:00,31.6,5.5,29.62,NW,304,9.0,23.0,33,0.00,,,0.00,Weather View 32 v70,2013-03-04 23:24:00,
2013-03-04 18:29:00,31.6,5.6,29.62,NNW,343,2.0,23.0,33,0.00,,,0.00,Weather View 32 v70,2013-03-04 23:29:00,
2013-03-04 18:34:00,31.3,5.2,29.62,NNW,348,8.0,23.0,33,0.00,,,0.00,Weather View 32 v70,2013-03-04 23:34:00,
2013-03-04 18:39:00,31.1,5.1,29.62,NNW,330,13.0,23.0,33,0.00,,,0.00,Weather View 32 v70,2013-03-04 23:39:00,
2013-03-04 18:44:00,31.1,5.6,29.65,NW,323,10.0,23.0,33,0.00,,,0.00,Weather View 32 v70,2013-03-04 23:44:00,
2013-03-04 18:49:00,30.9,5.5,29.62,NW,304,6.0,23.0,34,0.00,,,0.00,Weather View 32 v70,2013-03-04 23:49:00,
2013-03-04 18:54:00,30.9,5.7,29.65,WNW,285,8.0,24.0,34,0.00,,,0.00,Weather View 32 v70,2013-03-04 23:54:00,
2013-03-04 18:59:00,31.3,5.7,29.65,ENE,70,4.0,24.0,33,0.00,,,0.00,Weather View 32 v70,2013-03-04 23:59:00,
2013-03-04 19:04:00,30.9,6.1,29.62,North,5,3.0,24.0,35,0.00,,,0.00,Weather View 32 v70,2013-03-05 00:04:00,
2013-03-04 19:10:00,30.7,5.9,29.65,WSW,252,5.0,24.0,34,0.00,,,0.00,Weather View 32 v70,2013-03-05 00:10:00,
2013-03-04 19:15:00,30.7,5.9,29.65,North,6,6.0,24.0,34,0.00,,,0.00,Weather View 32 v70,2013-03-05 00:15:00,
2013-03-04 19:20:00,30.7,5.8,29.65,NW,318,9.0,24.0,34,0.00,,,0.00,Weather View 32 v70,2013-03-05 00:20:00,
2013-03-04 19:25:00,30.7,6.3,29.65,North,357,7.0,24.0,35,0.00,,,0.00,Weather View 32 v70,2013-03-05 00:25:00,
2013-03-04 19:30:00,30.5,5.9,29.65,North,351,4.0,24.0,35,0.00,,,0.00,Weather View 32 v70,2013-03-05 00:30:00,
2013-03-04 19:35:00,30.5,6.1,29.65,NNW,341,6.0,24.0,35,0.00,,,0.00,Weather View 32 v70,2013-03-05 00:35:00,
2013-03-04 19:40:00,30.5,6.2,29.62,NW,310,14.0,24.0,35,0.00,,,0.00,Weather View 32 v70,2013-03-05 00:40:00,
2013-03-04 19:45:00,30.5,6.4,29.65,NW,324,2.0,26.0,35,0.00,,,0.00,Weather View 32 v70,2013-03-05 00:45:00,
2013-03-04 19:50:00,30.4,6.2,29.65,WNW,293,7.0,26.0,35,0.00,,,0.00,Weather View 32 v70,2013-03-05 00:50:00,
2013-03-04 19:55:00,30.2,6.0,29.68,NW,322,13.0,26.0,35,0.00,,,0.00,Weather View 32 v70,2013-03-05 00:55:00,
2013-03-04 20:00:00,30.4,6.2,29.68,NNW,348,8.0,26.0,35,0.00,,,0.00,Weather View 32 v70,2013-03-05 01:00:00,
2013-03-04 20:05:00,30.5,6.1,29.65,NNW,333,6.0,26.0,35,0.00,,,0.00,Weather View 32 v70,2013-03-05 01:05:00,
2013-03-04 20:10:00,30.9,6.6,29.65,ESE,107,3.0,26.0,35,0.00,,,0.00,Weather View 32 v70,2013-03-05 01:10:00,
2013-03-04 20:15:00,30.5,6.4,29.68,NW,318,5.0,26.0,36,0.00,,,0.00,Weather View 32 v70,2013-03-05 01:15:00,
2013-03-04 20:20:00,30.5,6.1,29.65,West,263,8.0,26.0,35,0.00,,,0.00,Weather View 32 v70,2013-03-05 01:20:00,
2013-03-04 20:25:00,30.5,6.1,29.65,NNW,342,11.0,26.0,35,0.00,,,0.00,Weather View 32 v70,2013-03-05 01:25:00,
2013-03-04 20:30:00,30.4,6.3,29.65,NNW,339,12.0,26.0,36,0.00,,,0.00,Weather View 32 v70,2013-03-05 01:30:00,
2013-03-04 20:35:00,30.4,6.1,29.65,NNW,332,6.0,26.0,35,0.00,,,0.00,Weather View 32 v70,2013-03-05 01:35:00,
2013-03-04 20:40:00,30.4,6.8,29.65,NNW,327,6.0,26.0,36,0.00,,,0.00,Weather View 32 v70,2013-03-05 01:40:00,
2013-03-04 20:45:00,30.7,7.0,29.68,NE,39,8.0,24.0,36,0.00,,,0.00,Weather View 32 v70,2013-03-05 01:45:00,
2013-03-04 20:50:00,30.5,6.7,29.65,NNE,27,1.0,24.0,36,0.00,,,0.00,Weather View 32 v70,2013-03-05 01:50:00,
2013-03-04 20:55:00,30.7,6.7,29.68,North,359,3.0,24.0,36,0.00,,,0.00,Weather View 32 v70,2013-03-05 01:55:00,
2013-03-04 21:00:00,30.7,6.4,29.65,ENE,72,1.0,24.0,35,0.00,,,0.00,Weather View 32 v70,2013-03-05 02:00:00,
2013-03-04 21:05:00,30.5,6.3,29.65,NNW,334,3.0,24.0,35,0.00,,,0.00,Weather View 32 v70,2013-03-05 02:05:00,
2013-03-04 21:10:00,30.7,6.3,29.68,NW,320,1.0,24.0,35,0.00,,,0.00,Weather View 32 v70,2013-03-05 02:10:00,
2013-03-04 21:15:00,30.4,6.5,29.65,West,281,5.0,18.0,36,0.00,,,0.00,Weather View 32 v70,2013-03-05 02:15:00,
2013-03-04 21:20:00,30.4,6.8,29.68,North,352,9.0,18.0,36,0.00,,,0.00,Weather View 32 v70,2013-03-05 02:20:00,
2013-03-04 21:25:00,30.7,7.1,29.68,WSW,246,1.0,19.0,36,0.00,,,0.00,Weather View 32 v70,2013-03-05 02:25:00,
2013-03-04 21:30:00,30.7,7.2,29.68,NNE,20,7.0,19.0,37,0.00,,,0.00,Weather View 32 v70,2013-03-05 02:30:00,
2013-03-04 21:35:00,30.7,7.3,29.68,NW,322,4.0,20.0,37,0.00,,,0.00,Weather View 32 v70,2013-03-05 02:35:00,
2013-03-04 21:40:00,30.5,7.2,29.68,WNW,298,1.0,20.0,37,0.00,,,0.00,Weather View 32 v70,2013-03-05 02:40:00,
2013-03-04 21:45:00,30.5,7.0,29.68,North,355,6.0,20.0,37,0.00,,,0.00,Weather View 32 v70,2013-03-05 02:45:00,
2013-03-04 21:50:00,30.4,6.8,29.68,NW,313,10.0,20.0,36,0.00,,,0.00,Weather View 32 v70,2013-03-05 02:50:00,
2013-03-04 21:55:00,30.7,7.4,29.68,NE,41,8.0,20.0,37,0.00,,,0.00,Weather View 32 v70,2013-03-05 02:55:00,
2013-03-04 22:00:00,30.4,7.2,29.68,NW,324,6.0,20.0,37,0.00,,,0.00,Weather View 32 v70,2013-03-05 03:00:00,
2013-03-04 22:05:00,30.2,6.5,29.68,NNW,336,6.0,20.0,36,0.00,,,0.00,Weather View 32 v70,2013-03-05 03:05:00,
2013-03-04 22:10:00,30.4,7.1,29.68,NNW,330,5.0,20.0,37,0.00,,,0.00,Weather View 32 v70,2013-03-05 03:10:00,
2013-03-04 22:15:00,30.4,7.2,29.68,NNE,22,2.0,20.0,37,0.00,,,0.00,Weather View 32 v70,2013-03-05 03:15:00,
2013-03-04 22:20:00,30.5,7.3,29.68,ENE,64,5.0,20.0,37,0.00,,,0.00,Weather View 32 v70,2013-03-05 03:20:00,
2013-03-04 22:25:00,30.2,7.1,29.68,NNW,338,9.0,20.0,37,0.00,,,0.00,Weather View 32 v70,2013-03-05 03:25:00,
2013-03-04 22:30:00,30.4,6.9,29.68,North,358,5.0,20.0,37,0.00,,,0.00,Weather View 32 v70,2013-03-05 03:30:00,
2013-03-04 22:35:00,30.4,7.4,29.68,NE,38,4.0,19.0,37,0.00,,,0.00,Weather View 32 v70,2013-03-05 03:35:00,
2013-03-04 22:40:00,30.4,7.2,29.68,NNW,335,2.0,19.0,37,0.00,,,0.00,Weather View 32 v70,2013-03-05 03:40:00,
2013-03-04 22:45:00,30.7,7.6,29.68,ENE,64,6.0,19.0,37,0.00,,,0.00,Weather View 32 v70,2013-03-05 03:45:00,
2013-03-04 22:50:00,30.5,7.4,29.68,East,91,2.0,19.0,37,0.00,,,0.00,Weather View 32 v70,2013-03-05 03:50:00,
2013-03-04 22:55:00,30.2,6.8,29.68,NW,317,7.0,17.0,37,0.00,,,0.00,Weather View 32 v70,2013-03-05 03:55:00,
2013-03-04 23:00:00,30.2,7.2,29.68,NNW,338,10.0,17.0,37,0.00,,,0.00,Weather View 32 v70,2013-03-05 04:00:00,
2013-03-04 23:05:00,30.2,7.1,29.68,North,357,6.0,21.0,37,0.00,,,0.00,Weather View 32 v70,2013-03-05 04:05:00,
2013-03-04 23:10:00,30.4,7.2,29.68,NNE,16,5.0,21.0,37,0.00,,,0.00,Weather View 32 v70,2013-03-05 04:10:00,
2013-03-04 23:15:00,30.0,7.1,29.68,NNW,330,11.0,21.0,37,0.00,,,0.00,Weather View 32 v70,2013-03-05 04:15:00,
2013-03-04 23:20:00,30.2,6.8,29.68,North,352,5.0,21.0,37,0.00,,,0.00,Weather View 32 v70,2013-03-05 04:20:00,
2013-03-04 23:25:00,30.0,7.2,29.68,WSW,242,3.0,21.0,38,0.00,,,0.00,Weather View 32 v70,2013-03-05 04:25:00,
2013-03-04 23:30:00,30.2,7.1,29.68,North,356,3.0,21.0,37,0.00,,,0.00,Weather View 32 v70,2013-03-05 04:30:00,
2013-03-04 23:35:00,30.0,7.4,29.74,NNW,335,4.0,21.0,38,0.00,,,0.00,Weather View 32 v70,2013-03-05 04:35:00,
2013-03-04 23:40:00,30.0,7.6,29.65,WNW,289,3.0,21.0,38,0.00,,,0.00,Weather View 32 v70,2013-03-05 04:40:00,
2013-03-04 23:45:00,30.0,7.4,29.71,NNW,337,4.0,21.0,38,0.00,,,0.00,Weather View 32 v70,2013-03-05 04:45:00,
2013-03-04 23:50:00,30.0,7.3,29.68,NNW,347,5.0,21.0,38,0.00,,,0.00,Weather View 32 v70,2013-03-05 04:50:00,
2013-03-04 23:55:00,29.8,7.6,29.68,NNW,335,5.0,21.0,39,0.00,,,0.00,Weather View 32 v70,2013-03-05 04:55:00,